www.pogodaiklimat.ru

Погода и климат >> Архив погоды >> Монголия >> Тэс


ПОГОДА в Тэсе

  • Прогноз погоды в Тэсе
  • Монитор погоды в Тэсе

АРХИВ ПОГОДЫ в Тэсе

Время (UTC), дата Ветер
(напр.,м/с)
 
Видим.   Явления Облачность Т
(С)
Тd
(С)
f
(%)
Тe
(С)
Тes
(С)
Комфортность P
(гПа)
Po
(гПа)
Тmin
(С)
Tmax
(С)
R
(мм)
R24
(мм)
S
(см)
00 12.06 З 1 50 км 1/0
[Ci]
+8.9 +2.7 65 +9 +12 1022.7 861.2 +1.8
03 12.06 С 2 50 км 3/1 1000 м
[Cu hum Ac cast Ci fib]
+15.9 +3.7 44 +16 +26 1016.8 859.7
06 12.06 З 2 50 км 4/3 1000 м
[Cu med, cong Ci fib]
+20.8 -1.1 23 +21 +33 комфорт 1011.6 857.7
09 12.06 СЗ 1 50 км 9/3 1000 м
[Cu med, cong Ac cuf Cs]
+23.2 -2.4 18 +22 +26 комфорт 1007.6 855.6
12 12.06 СВ 2 50 км 9/8 1000 м
[Cu med, cong Ac cast Ci fib]
+22.7 -3.7 17 +21 +21 комфорт 1006.5 854.3 +23.9
15 12.06 штиль 0 н/о 8/0
[Ac trans]
+16.5 -0.7 31 +17 +17 1010.6 854.9
18 12.06 штиль 0 н/о 9/0
[Ac und]
+10.6 -1.4 43 +10 +10 1014.0 854.7
21 12.06 СЗ 1 50 км 9/0
[Ac As]
+9.8 -1.0 47 +10 +10 1014.0 854.3
00 13.06 СЗ 2 50 км 10/0
[Ac As]
+12.7 +0.8 44 +12 +13 1011.5 853.7 +7.4
03 13.06 СЗ 2 50 км 10/0
[Ac As]
+17.3 +2.1 36 +18 +22 1008.3 853.3
06 13.06 Ю 2 50 км 10/10 1000 м
[Sc]
+22.3 +2.9 28 +22 +22 комфорт 1004.0 852.1
09 13.06 З 5 20 км слаб. дождь 10/10 600 м
[Sc]
+21.9 +6.2 36 +23 +23 комфорт 1003.9 851.8
12 13.06 Ю 2 20 км осадки на расстоянии 10/10 600 м
[Sc]
+20.0 +8.7 48 +22 +22 комфорт 1004.3 851.2 +23.6 0.0
15 13.06 Ю 4 н/о в посл. час дождь 10/10 600 м
[Sc]
+17.4 +9.6 60 +17 +17 1005.5 851.0
18 13.06 Ю 5 н/о дождь 10/0 600 м
[As op]
+14.2 +11.8 85 +12 +12 1006.2 850.2
21 13.06 ЮВ 4 1000 м дождь 10/0 600 м
[As op]
+13.4 +11.2 87 +12 +12 1004.3 848.0
00 14.06 С 1 4000 м слаб. дождь 10/10 600 м
[Sc]
+12.9 +11.7 92 +13 +13 1002.9 846.5 +12.7 7
03 14.06 ЮВ 6 20 км осадки на расстоянии 10/10 600 м
[Sc]
+16.3 +11.7 74 +15 +15 1000.2 846.0
06 14.06 З 4 4000 м осадки на расстоянии {ливн. осадки} 10/10 600 м
[Cb cap]
+15.6 +11.4 76 +15 +15 1001.2 846.5
09 14.06 З 2 20 км осадки на расстоянии {ливн. осадки} туман 9/8 600 м
[Cb cap Ac cuf Ci fib]
+17.6 +10.8 64 +18 +20 1000.4 846.2
12 14.06 З 5 50 км {ливн. осадки} 8/8 600 м
[Cb cap]
+15.4 +11.2 76 +14 +14 1002.6 847.5 +17.6 4
15 14.06 З 4 н/о 9/9 600 м
[Cb cap]
+12.6 +10.3 86 +11 +11 1005.5 848.6
18 14.06 З 3 н/о 9/9 600 м
[Cb cap]
+12.0 +9.9 87 +10 +10 1005.8 848.5
21 14.06 З 5 50 км 9/4 600 м
[Cb cap Ac trans]
+11.7 +9.4 86 +9 +9 1005.8 848.3
00 15.06 ЮЗ 3 50 км 9/9 600 м
[Sc]
+11.4 +8.8 84 +10 +10 1006.0 848.4 +11.2
03 15.06 З 6
{11}
20 км осадки на расстоянии 9/8 600 м
[Cb cap Ac As]
+13.3 +9.5 78 +11 +12 1004.9 848.4
06 15.06 З 7 20 км осадки на расстоянии 10/10 600 м
[Cb cap]
+14.6 +9.0 69 +13 +13 1003.2 847.6
09 15.06 З 6
{12}
20 км осадки на расстоянии 10/10 600 м
[Cb cap Ac As]
+15.8 +9.2 65 +14 +14 1002.0 847.2
12 15.06 СЗ 5 20 км осадки на расстоянии 10/10 600 м
[Cb cap]
+16.2 +8.2 59 +15 +15 1001.9 847.4 +16.6
15 15.06 З 4 н/о слаб. ливневой дождь 10/10 600 м
[Cb cap]
+14.0 +8.6 70 +13 +13 1004.6 848.5
18 15.06 ЮЗ 2 н/о {ливн. осадки} 9/9 600 м
[Cb cap]
+13.1 +8.2 72 +12 +12 1005.1 848.5
21 15.06 З 2 20 км осадки на расстоянии 9/9 600 м
[Cb cap]
+12.5 +8.4 76 +12 +12 1005.7 848.7
00 16.06 С 2 20 км осадки на расстоянии 9/8 600 м
[Cb cap Ac As Ci fib]
+11.4 +9.7 89 +10 +11 1007.1 849.3 +11.2 0.0
03 16.06 З 2 50 км 9/5 600 м
[Cb cap Ac trans Ci fib]
+16.3 +9.5 64 +16 +20 1004.8 849.8
06 16.06 З 4 50 км 9/8 600 м
[Cb cap Ci fib]
+20.4 +7.7 44 +22 +24 комфорт 1000.7 848.4
09 16.06 С 3
{10}
10 км осадки на расстоянии {гроза, ливн. осадки} туман 9/9 600 м
[Cb cap]
+19.0 +8.6 51 +20 +21 1000.8 847.8
12 16.06 СВ 1
{10}
50 км {гроза, ливн. осадки} 9/3 1000 м
[Cu med, cong Ac cuf Ci fib]
+21.4 +8.6 44 +23 +23 комфорт 999.4 847.8 +23.0 0.2
15 16.06 Ю 4 50 км 6/0
[Ac lent Ci]
+14.8 +9.8 72 +14 +14 1005.6 849.8
18 16.06 штиль 0 50 км ясно +12.1 +8.9 81 +12 +12 1007.4 849.9
21 16.06 штиль 0 50 км ясно +9.7 +7.5 86 +9 +9 1009.0 850.1
00 17.06 ЮВ 1 50 км 8/0
[Cs]
+13.2 +8.3 72 +13 +16 1007.1 850.2 +7.6
03 17.06 В 2 50 км 8/6 1000 м
[Cu med, cong Ci fib]
+20.2 +9.4 50 +22 +27 комфорт 1002.4 849.7
06 17.06 З 6 10 км осадки на расстоянии 9/9 600 м
[Cb cap]
+19.4 +9.3 52 +20 +21 1004.1 850.8
09 17.06 З 2 50 км в посл. час ливневой дождь 9/6 600 м
[Cu hum Ac cast]
+17.0 +10.6 66 +17 +19 1006.8 851.9
12 17.06 З 1 50 км {ливн. осадки} 6/6 600 м
[Cb cap]
+19.4 +9.6 53 +21 +22 комфорт 1006.4 852.7 +21.7 0.3
15 17.06 З 4 50 км 1/1 1000 м
[Cu hum]
+15.0 +7.3 60 +14 +14 1011.2 854.7
18 17.06 СЗ 1 50 км ясно +10.1 +6.8 80 +10 +10 1015.7 855.9
21 17.06 З 1 50 км ясно +7.1 +5.7 91 +6 +6 1018.0 856.2
00 18.06 Ю 1 50 км ясно +10.8 +7.3 79 +11 +14 1016.5 857.0 +5.7
03 18.06 ЮЗ 2 50 км 1/1 1000 м
[Cu hum]
+17.8 +9.2 57 +18 +30 опасность
простуды
1011.3 856.1
06 18.06 ЮВ 2 50 км 4/4 1000 м
[Cu med, cong]
+23.2 +2.1 25 +23 +33 комфорт 1006.2 854.3
09 18.06 СВ 2 50 км 6/6 1000 м
[Cu med, cong]
+24.5 +3.8 26 +24 +28 комфорт 1003.7 852.9
12 18.06 ЮВ 3 50 км 4/4 1000 м
[Cu med, cong]
+24.4 +7.8 35 +25 +25 комфорт 1003.3 852.5 +25.5
15 18.06 В 2 50 км ясно +17.3 +7.1 51 +18 +18 1008.0 853.1
18 18.06 В 2 50 км ясно +14.8 +6.1 56 +15 +15 1009.4 853.0
21 18.06 ЮВ 2 50 км 1/0
[Ac lent]
+10.0 +5.0 71 +9 +9 1012.4 853.1

 

Местоположение метеостанции Тэс (Монголия): широта 49.65 долгота 95.78 высота над уровнем моря 1421 м.

В архиве по умолчанию представлена погода в Тэсе за последнюю неделю. Архивные данные за месяц целиком и за предыдущие месяцы, начиная с января 2011 года, Вы можете получить, выбрав интересующий диапазон дат из раскрывающегося списка и нажав кнопку "Ввод!".


*Определитесь, кто Вы:
робот инопланетянин человек

Внимание! Время в таблицах - всемирное. Для получения местного времени необходимо прибавить поправку, которая равна 8 ч.

Смотрите также архив погоды в соседних городах и на ближайших метеорологических станциях:

Погода в Эрзине (Тува, Россия) (84 км)
Погода в Цэцэн-Ууле (Монголия) (99 км)
Погода в Баруунтурууне (Монголия) (99 км)
Погода в Кунгур-Туке (Алтай, Россия) (163 км)
Погода в Ургамале (Монголия) (166 км)
Погода в Сосновке (Тува, Россия) (189 км)
Погода в Тосонцэнгэле (Монголия) (203 км)
Погода в Сарыг-Сепе (Тува, Россия) (206 км)
Погода в Хову-Аксы (Тува, Россия) (214 км)
Погода в Завхане (Монголия) (215 км)

Пояснения к столбцам:

Ветер - указаны скорость ветра в м/с - средняя за 10 мин, порывы в срок и между сроками (в фигурных скобках) и направление, откуда дует ветер: С - северный, СВ - северо-восточный, В - восточный, ЮВ - юго-восточный, Ю - южный, ЮЗ - юго-западный, З - западный, СЗ - северо-западный.
Видимость - горизонтальная дальность видимости в метрах или километрах. При видимости от 1 до 10 км при отсутствии осадков обычно наблюдается дымка, при ухудшении видимости до 1 км и менее - туман. В сухую погоду видимость может ухудшаться дымом, пылью или мглою.
Явления - указаны атмосферные явления, наблюдавшиеся в срок или в последний час перед сроком; фигурными скобками обозначены явления, наблюдавшиеся между сроками (за 1-3 часа до срока); квадратными скобками обозначены град или гололедные отложения с указанием их диаметра в мм.
Облачность - указаны через наклонную черту общая и нижняя облачность в баллах и высота нижней границы облаков в метрах; квадратными скобками обозначены формы облаков: Ci - перистые, Cs - перисто-слоистые, Cc - перисто-кучевые, Ac - высококучевые, As - высокослоистые, Sc - слоисто-кучевые, Ns - слоисто-дождевые, Cu - кучевые, Cb - кучево-дождевые. Подробнее классификацию облаков см. в Атласе облаков (PDF).
T - Температура воздуха - температура, измеренная на высоте 2 м над землей.
Td - Температура точки росы - температура, при понижении до которой содержащийся в воздухе водяной пар достигнет насыщения.
f - Относительная влажность воздуха - влажноcть воздуха, измеренная на высоте 2 м над землей.
Te - Эффективная температура - температура, которую ощущает одетый по сезону человек в тени. Характеристика душности погоды. При расчете учитывается влияние влажности воздуха и скорости ветра на теплоощущения человека.
Tes - Эффективная температура на солнце - температура, которую ощущает человек, с поправкой на солнечный нагрев. Характеристика знойности погоды. Зависит от высоты солнца над горизонтом, облачности и скорости ветра. Ночью, в пасмурную погоду, а также при ветре 12 м/с и более поправка равна нулю.
P - Атмосферное давление - приведенное к уровню моря атмосферное давление.
Po - Атмосферное давление - измеренное на уровне метеостанции атмосферное давление.
Tmin - Минимальная температура - минимум температуры воздуха на высоте 2 м над землей.
Tmax - Максимальная температура - максимум температуры воздуха на высоте 2 м над землей.
R - Количество осадков - Количество выпавших осадков за период времени, мм. При наведении курсора мыши на число - период времени, за который выпало указанное количество осадков.
R24 - Количество осадков - Количество выпавших осадков за 24 часа, мм.
S - Снежный покров - Высота снежного покрова, см. При наведении курсора мыши на число - состояние снежного покрова и степень покрытия местности в баллах.